| time (UTC) | temp F | wind direction | speed MPH | gust MPH | rain 1hr in | rain 24hr in | rain mn in | humidity % | barometer mb |
| 20260831222307 | 58 | 23 | 5.0 | 8.0 | 0.00 | 0.00 | 0.00 | 75 | 1020.4 |
| 20260831221806 | 58 | 315 | 3.0 | 8.0 | 0.00 | 0.00 | 0.00 | 76 | 1020.4 |
| 20260831221306 | 57 | 19 | 2.0 | 6.0 | 0.00 | 0.00 | 0.00 | 78 | 1020.6 |
| 20260831220806 | 56 | 21 | 2.0 | 6.0 | 0.00 | 0.00 | 0.00 | 82 | 1020.6 |
| 20260831215807 | 54 | 0 | 0.0 | 1.0 | 0.00 | 0.00 | 0.00 | 91 | 1020.9 |
| 20260831215307 | 53 | 0 | 0.0 | 1.0 | 0.00 | 0.00 | 0.00 | 92 | 1020.8 |
| 20260831214807 | 52 | 0 | 0.0 | 1.0 | 0.00 | 0.00 | 0.00 | 93 | 1021.1 |
| 20260831214307 | 51 | 0 | 0.0 | 0.0 | 0.00 | 0.00 | 0.00 | 93 | 1021.0 |
| 20260831213806 | 50 | 0 | 0.0 | 0.0 | 0.00 | 0.00 | 0.00 | 93 | 1020.9 |
| 20260831213306 | 50 | 0 | 0.0 | 0.0 | 0.00 | 0.00 | 0.00 | 93 | 1020.8 |
| 20260831212806 | 50 | 0 | 0.0 | 0.0 | 0.00 | 0.00 | 0.00 | 93 | 1020.9 |
| 20260831211807 | 50 | 0 | 0.0 | 0.0 | 0.00 | 0.00 | 0.00 | 93 | 1020.7 |
| 20260831211308 | 50 | 0 | 0.0 | 0.0 | 0.00 | 0.00 | 0.00 | 93 | 1020.8 |
| 20260831210807 | 50 | 0 | 0.0 | 0.0 | 0.00 | 0.00 | 0.00 | 93 | 1020.7 |
| 20260831210308 | 50 | 0 | 0.0 | 0.0 | 0.00 | 0.00 | 0.00 | 93 | 1020.8 |
| 20260831204807 | 51 | 0 | 0.0 | 1.0 | 0.00 | 0.00 | 0.00 | 93 | 1020.7 |
| 20260831204306 | 51 | 0 | 0.0 | 1.0 | 0.00 | 0.00 | 0.00 | 93 | 1020.9 |
| 20260831203807 | 51 | 0 | 0.0 | 2.0 | 0.00 | 0.00 | 0.00 | 93 | 1020.8 |
| 20260831203307 | 51 | 359 | 1.0 | 2.0 | 0.00 | 0.00 | 0.00 | 93 | 1020.6 |
| 20260831202806 | 51 | 338 | 1.0 | 2.0 | 0.00 | 0.00 | 0.00 | 93 | 1020.5 |
| 20260831202307 | 51 | 45 | 0.0 | 2.0 | 0.00 | 0.00 | 0.00 | 93 | 1020.6 |
| 20260831201807 | 51 | 0 | 0.0 | 5.0 | 0.00 | 0.00 | 0.00 | 93 | 1020.4 |
| 20260831201307 | 51 | 21 | 1.0 | 5.0 | 0.00 | 0.00 | 0.00 | 93 | 1020.6 |
| 20260831200806 | 51 | 0 | 0.0 | 1.0 | 0.00 | 0.00 | 0.00 | 93 | 1021.0 |
| 20260831200307 | 51 | 44 | 1.0 | 1.0 | 0.00 | 0.00 | 0.00 | 93 | 1020.9 |
| 20260831195807 | 51 | 315 | 1.0 | 1.0 | 0.00 | 0.00 | 0.00 | 93 | 1021.1 |
| 20260831194306 | 52 | 339 | 1.0 | 3.0 | 0.00 | 0.00 | 0.00 | 93 | 1020.8 |
| 20260831193807 | 52 | 338 | 0.0 | 2.0 | 0.00 | 0.00 | 0.00 | 94 | 1020.8 |
| 20260831193307 | 52 | 20 | 1.0 | 2.0 | 0.00 | 0.00 | 0.00 | 94 | 1020.9 |
| 20260831192806 | 52 | 340 | 1.0 | 3.0 | 0.00 | 0.00 | 0.00 | 94 | 1021.0 |
| 20260831192307 | 52 | 338 | 1.0 | 3.0 | 0.00 | 0.00 | 0.00 | 94 | 1020.8 |
| 20260831191308 | 51 | 0 | 0.0 | 2.0 | 0.00 | 0.00 | 0.00 | 94 | 1021.0 |
| 20260831190806 | 51 | 315 | 0.0 | 1.0 | 0.00 | 0.00 | 0.00 | 94 | 1021.0 |
| 20260831190306 | 52 | 22 | 0.0 | 0.0 | 0.00 | 0.00 | 0.00 | 94 | 1020.9 |
| 20260831185307 | 52 | 1 | 1.0 | 2.0 | 0.00 | 0.00 | 0.00 | 94 | 1021.0 |
| 20260831184810 | 52 | 22 | 0.0 | 2.0 | 0.00 | 0.00 | 0.00 | 94 | 1021.1 |
| 20260831184307 | 52 | 3 | 1.0 | 3.0 | 0.00 | 0.00 | 0.00 | 94 | 1021.0 |
| 20260831183807 | 51 | 1 | 1.0 | 5.0 | 0.00 | 0.00 | 0.00 | 94 | 1021.0 |
| 20260831183306 | 50 | 22 | 2.0 | 5.0 | 0.00 | 0.00 | 0.00 | 94 | 1021.2 |
| 20260831182807 | 46 | 43 | 0.0 | 1.0 | 0.00 | 0.00 | 0.00 | 94 | 1021.2 |
| 20260831182307 | 46 | 292 | 0.0 | 0.0 | 0.00 | 0.00 | 0.00 | 94 | 1021.2 |
| 20260831181806 | 46 | 292 | 0.0 | 0.0 | 0.00 | 0.00 | 0.00 | 94 | 1021.3 |
| 20260831180806 | 45 | 292 | 0.0 | 0.0 | 0.00 | 0.00 | 0.00 | 93 | 1021.8 |
| 20260831180306 | 45 | 292 | 0.0 | 0.0 | 0.00 | 0.00 | 0.00 | 93 | 1021.8 |
| 20260831175806 | 45 | 292 | 0.0 | 0.0 | 0.00 | 0.00 | 0.00 | 93 | 1021.9 |
| 20260831175307 | 45 | 292 | 0.0 | 0.0 | 0.00 | 0.00 | 0.00 | 93 | 1021.8 |
| 20260831174807 | 45 | 292 | 0.0 | 0.0 | 0.00 | 0.00 | 0.00 | 93 | 1022.0 |
| 20260831174306 | 45 | 292 | 0.0 | 0.0 | 0.00 | 0.00 | 0.00 | 93 | 1021.8 |
| 20260831173806 | 45 | 292 | 0.0 | 0.0 | 0.00 | 0.00 | 0.00 | 93 | 1021.9 |
| 20260831173307 | 45 | 292 | 0.0 | 0.0 | 0.00 | 0.00 | 0.00 | 93 | 1022.0 |
| 20260831172809 | 45 | 292 | 0.0 | 0.0 | 0.00 | 0.00 | 0.00 | 93 | 1022.2 |
| 20260831172307 | 45 | 292 | 0.0 | 0.0 | 0.00 | 0.00 | 0.00 | 93 | 1022.1 |
| 20260831171806 | 45 | 292 | 0.0 | 0.0 | 0.00 | 0.00 | 0.00 | 93 | 1022.2 |
| 20260831171306 | 46 | 292 | 0.0 | 0.0 | 0.00 | 0.00 | 0.00 | 93 | 1022.2 |
| 20260831170307 | 46 | 292 | 0.0 | 0.0 | 0.00 | 0.00 | 0.00 | 93 | 1022.3 |
| 20260831165807 | 46 | 292 | 0.0 | 0.0 | 0.00 | 0.00 | 0.00 | 93 | 1022.6 |
| 20260831165306 | 46 | 292 | 0.0 | 0.0 | 0.00 | 0.00 | 0.00 | 93 | 1022.7 |
| 20260831164808 | 46 | 292 | 0.0 | 0.0 | 0.00 | 0.00 | 0.00 | 93 | 1022.7 |
| 20260831163806 | 45 | 292 | 0.0 | 0.0 | 0.00 | 0.00 | 0.00 | 92 | 1022.8 |
| 20260831163307 | 45 | 292 | 0.0 | 1.0 | 0.00 | 0.00 | 0.00 | 92 | 1023.0 |
| 20260831162807 | 45 | 292 | 0.0 | 1.0 | 0.00 | 0.00 | 0.00 | 93 | 1023.1 |
| 20260831162307 | 46 | 292 | 0.0 | 0.0 | 0.00 | 0.00 | 0.00 | 92 | 1023.2 |
| 20260831161806 | 46 | 292 | 0.0 | 0.0 | 0.00 | 0.00 | 0.00 | 92 | 1023.1 |
| 20260831161306 | 45 | 292 | 0.0 | 0.0 | 0.00 | 0.00 | 0.00 | 92 | 1023.2 |
| 20260831160807 | 45 | 292 | 0.0 | 0.0 | 0.00 | 0.00 | 0.00 | 92 | 1023.3 |
| 20260831160307 | 45 | 292 | 0.0 | 0.0 | 0.00 | 0.00 | 0.00 | 92 | 1023.4 |
| 20260831155806 | 45 | 292 | 0.0 | 0.0 | 0.00 | 0.00 | 0.00 | 92 | 1023.5 |
| 20260831155306 | 45 | 292 | 0.0 | 1.0 | 0.00 | 0.00 | 0.00 | 92 | 1023.5 |
| 20260831154806 | 45 | 292 | 0.0 | 0.0 | 0.00 | 0.00 | 0.00 | 92 | 1023.4 |
| 20260831154306 | 45 | 292 | 0.0 | 1.0 | 0.00 | 0.00 | 0.00 | 92 | 1023.5 |
| 20260831153307 | 45 | 292 | 0.0 | 1.0 | 0.00 | 0.00 | 0.00 | 93 | 1023.7 |
| 20260831152806 | 46 | 292 | 0.0 | 0.0 | 0.00 | 0.00 | 0.00 | 93 | 1023.6 |
| 20260831152307 | 46 | 292 | 0.0 | 0.0 | 0.00 | 0.00 | 0.00 | 93 | 1023.8 |
| 20260831151807 | 46 | 292 | 0.0 | 0.0 | 0.00 | 0.00 | 0.00 | 93 | 1023.7 |
| 20260831151307 | 46 | 292 | 0.0 | 0.0 | 0.00 | 0.00 | 0.00 | 93 | 1023.8 |
| 20260831150806 | 46 | 292 | 0.0 | 1.0 | 0.00 | 0.00 | 0.00 | 93 | 1023.9 |
| 20260831150307 | 46 | 292 | 0.0 | 1.0 | 0.00 | 0.00 | 0.00 | 93 | 1023.9 |
| 20260831145806 | 46 | 292 | 0.0 | 1.0 | 0.00 | 0.00 | 0.00 | 93 | 1023.9 |
| 20260831145307 | 46 | 292 | 0.0 | 1.0 | 0.00 | 0.00 | 0.00 | 93 | 1024.0 |
| 20260831144806 | 45 | 292 | 0.0 | 1.0 | 0.00 | 0.00 | 0.00 | 93 | 1023.9 |
| 20260831144308 | 45 | 339 | 0.0 | 1.0 | 0.00 | 0.00 | 0.00 | 93 | 1024.1 |
| 20260831143806 | 45 | 45 | 0.0 | 1.0 | 0.00 | 0.00 | 0.00 | 93 | 1024.2 |
| 20260831143306 | 44 | 68 | 0.0 | 1.0 | 0.00 | 0.00 | 0.00 | 93 | 1024.0 |
| 20260831142807 | 44 | 68 | 0.0 | 0.0 | 0.00 | 0.00 | 0.00 | 92 | 1024.1 |
| 20260831142307 | 44 | 68 | 0.0 | 0.0 | 0.00 | 0.00 | 0.00 | 92 | 1024.3 |
| 20260831141806 | 45 | 68 | 0.0 | 0.0 | 0.00 | 0.00 | 0.00 | 92 | 1024.4 |
| 20260831140808 | 45 | 68 | 0.0 | 0.0 | 0.00 | 0.00 | 0.00 | 92 | 1024.7 |
| 20260831140306 | 45 | 68 | 0.0 | 0.0 | 0.00 | 0.00 | 0.00 | 92 | 1024.5 |
| 20260831135807 | 45 | 68 | 0.0 | 0.0 | 0.00 | 0.00 | 0.00 | 92 | 1024.8 |
| 20260831134806 | 46 | 68 | 0.0 | 0.0 | 0.00 | 0.00 | 0.00 | 92 | 1024.9 |
| 20260831134307 | 46 | 68 | 0.0 | 0.0 | 0.00 | 0.00 | 0.00 | 92 | 1025.0 |
| 20260831133806 | 46 | 68 | 0.0 | 0.0 | 0.00 | 0.00 | 0.00 | 92 | 1025.1 |
| 20260831132806 | 46 | 68 | 0.0 | 0.0 | 0.00 | 0.00 | 0.00 | 92 | 1025.4 |
| 20260831131807 | 46 | 68 | 0.0 | 0.0 | 0.00 | 0.00 | 0.00 | 92 | 1025.4 |
| 20260831131307 | 46 | 68 | 0.0 | 0.0 | 0.00 | 0.00 | 0.00 | 92 | 1025.4 |
| 20260831130806 | 46 | 68 | 0.0 | 0.0 | 0.00 | 0.00 | 0.00 | 91 | 1025.5 |
| 20260831130306 | 46 | 68 | 0.0 | 1.0 | 0.00 | 0.00 | 0.00 | 91 | 1025.5 |
| 20260831125806 | 46 | 68 | 0.0 | 1.0 | 0.00 | 0.00 | 0.00 | 92 | 1025.6 |
| 20260831125307 | 46 | 68 | 0.0 | 0.0 | 0.00 | 0.00 | 0.00 | 91 | 1025.8 |
| 20260831124807 | 46 | 68 | 0.0 | 0.0 | 0.00 | 0.00 | 0.00 | 91 | 1025.7 |
| 20260831124307 | 46 | 68 | 0.0 | 0.0 | 0.00 | 0.00 | 0.00 | 91 | 1025.8 |
| 20260831123307 | 47 | 68 | 0.0 | 0.0 | 0.00 | 0.00 | 0.00 | 91 | 1026.0 |
| 20260831122307 | 47 | 68 | 0.0 | 0.0 | 0.00 | 0.00 | 0.00 | 91 | 1026.2 |
| 20260831121806 | 47 | 68 | 0.0 | 1.0 | 0.00 | 0.00 | 0.00 | 91 | 1025.9 |
| 20260831121306 | 47 | 68 | 0.0 | 0.0 | 0.00 | 0.00 | 0.00 | 90 | 1026.1 |
| 20260831120806 | 47 | 68 | 0.0 | 0.0 | 0.00 | 0.00 | 0.00 | 90 | 1026.1 |
| 20260831120307 | 47 | 68 | 0.0 | 0.0 | 0.00 | 0.00 | 0.00 | 90 | 1026.3 |
| 20260831115808 | 47 | 68 | 0.0 | 0.0 | 0.00 | 0.00 | 0.00 | 90 | 1026.3 |
| 20260831115307 | 48 | 68 | 0.0 | 0.0 | 0.00 | 0.00 | 0.00 | 90 | 1026.1 |
| 20260831114807 | 48 | 68 | 0.0 | 0.0 | 0.00 | 0.00 | 0.00 | 90 | 1026.4 |
| 20260831114306 | 48 | 68 | 0.0 | 0.0 | 0.00 | 0.00 | 0.00 | 90 | 1026.3 |
| 20260831113806 | 48 | 68 | 0.0 | 0.0 | 0.00 | 0.00 | 0.00 | 90 | 1026.3 |
| 20260831113307 | 48 | 68 | 0.0 | 0.0 | 0.00 | 0.00 | 0.00 | 90 | 1026.4 |
| 20260831112806 | 48 | 68 | 0.0 | 0.0 | 0.00 | 0.00 | 0.00 | 89 | 1026.4 |
| 20260831111807 | 48 | 68 | 0.0 | 0.0 | 0.00 | 0.00 | 0.00 | 89 | 1026.2 |
| 20260831111307 | 48 | 68 | 0.0 | 0.0 | 0.00 | 0.00 | 0.00 | 89 | 1026.3 |
| 20260831110806 | 48 | 68 | 0.0 | 0.0 | 0.00 | 0.00 | 0.00 | 89 | 1026.4 |
| 20260831110308 | 48 | 68 | 0.0 | 0.0 | 0.00 | 0.00 | 0.00 | 89 | 1026.6 |
| 20260831105807 | 49 | 68 | 0.0 | 0.0 | 0.00 | 0.00 | 0.00 | 88 | 1026.6 |
| 20260831105306 | 49 | 68 | 0.0 | 0.0 | 0.00 | 0.00 | 0.00 | 88 | 1026.7 |
| 20260831104307 | 49 | 68 | 0.0 | 0.0 | 0.00 | 0.00 | 0.00 | 88 | 1026.6 |
| 20260831103807 | 49 | 68 | 0.0 | 0.0 | 0.00 | 0.00 | 0.00 | 87 | 1026.5 |
| 20260831103306 | 49 | 68 | 0.0 | 0.0 | 0.00 | 0.00 | 0.00 | 87 | 1026.8 |
| 20260831102307 | 50 | 68 | 0.0 | 0.0 | 0.00 | 0.00 | 0.00 | 87 | 1026.9 |
| 20260831101808 | 51 | 68 | 0.0 | 0.0 | 0.00 | 0.00 | 0.00 | 87 | 1026.7 |
| 20260831101307 | 51 | 68 | 0.0 | 0.0 | 0.00 | 0.00 | 0.00 | 87 | 1026.9 |
| 20260831100806 | 51 | 68 | 0.0 | 0.0 | 0.00 | 0.00 | 0.00 | 86 | 1027.1 |
| 20260831100306 | 51 | 68 | 0.0 | 0.0 | 0.00 | 0.00 | 0.00 | 86 | 1027.0 |
| 20260831095806 | 51 | 68 | 0.0 | 0.0 | 0.00 | 0.00 | 0.00 | 85 | 1026.9 |
| 20260831095307 | 51 | 68 | 0.0 | 0.0 | 0.00 | 0.00 | 0.00 | 85 | 1026.9 |
| 20260831094807 | 52 | 68 | 0.0 | 0.0 | 0.00 | 0.00 | 0.00 | 83 | 1026.9 |
| 20260831093806 | 52 | 68 | 0.0 | 0.0 | 0.00 | 0.00 | 0.00 | 83 | 1026.9 |
| 20260831093307 | 53 | 68 | 0.0 | 1.0 | 0.00 | 0.00 | 0.00 | 83 | 1027.0 |
| 20260831091806 | 53 | 68 | 0.0 | 0.0 | 0.00 | 0.00 | 0.00 | 82 | 1027.1 |
| 20260831091306 | 53 | 68 | 0.0 | 0.0 | 0.00 | 0.00 | 0.00 | 82 | 1027.3 |
| 20260831090808 | 53 | 68 | 0.0 | 0.0 | 0.00 | 0.00 | 0.00 | 82 | 1027.1 |
| 20260831090308 | 53 | 68 | 0.0 | 1.0 | 0.00 | 0.00 | 0.00 | 82 | 1027.0 |
| 20260831085807 | 53 | 68 | 0.0 | 1.0 | 0.00 | 0.00 | 0.00 | 82 | 1027.1 |
| 20260831084806 | 53 | 91 | 0.0 | 1.0 | 0.00 | 0.00 | 0.00 | 81 | 1026.9 |
| 20260831084306 | 54 | 112 | 0.0 | 1.0 | 0.00 | 0.00 | 0.00 | 80 | 1027.1 |
| 20260831083806 | 54 | 90 | 0.0 | 1.0 | 0.00 | 0.00 | 0.00 | 80 | 1027.0 |
| 20260831083307 | 54 | 90 | 0.0 | 1.0 | 0.00 | 0.00 | 0.00 | 80 | 1027.0 |
| 20260831082807 | 55 | 90 | 0.0 | 1.0 | 0.00 | 0.00 | 0.00 | 79 | 1027.1 |
| 20260831081307 | 55 | 90 | 1.0 | 1.0 | 0.00 | 0.00 | 0.00 | 77 | 1027.1 |
| 20260831080806 | 56 | 71 | 1.0 | 3.0 | 0.00 | 0.00 | 0.00 | 76 | 1027.3 |
| 20260831080307 | 56 | 135 | 1.0 | 3.0 | 0.00 | 0.00 | 0.00 | 75 | 1027.4 |
| 20260831075807 | 56 | 90 | 0.0 | 2.0 | 0.00 | 0.00 | 0.00 | 75 | 1027.2 |
| 20260831075308 | 57 | 111 | 1.0 | 2.0 | 0.00 | 0.00 | 0.00 | 74 | 1027.2 |
| 20260831074807 | 57 | 92 | 1.0 | 3.0 | 0.00 | 0.00 | 0.00 | 74 | 1027.2 |
| 20260831074308 | 58 | 112 | 1.0 | 2.0 | 0.00 | 0.00 | 0.00 | 73 | 1027.3 |
| 20260831073806 | 58 | 45 | 1.0 | 2.0 | 0.00 | 0.00 | 0.00 | 72 | 1027.3 |
| 20260831073307 | 58 | 91 | 1.0 | 2.0 | 0.00 | 0.00 | 0.00 | 72 | 1027.3 |
| 20260831072306 | 59 | 135 | 1.0 | 3.0 | 0.00 | 0.00 | 0.00 | 71 | 1027.2 |
| 20260831071309 | 60 | 110 | 2.0 | 3.0 | 0.00 | 0.00 | 0.00 | 70 | 1027.2 |
| 20260831070806 | 60 | 155 | 1.0 | 3.0 | 0.00 | 0.00 | 0.00 | 69 | 1027.4 |
| 20260831065306 | 61 | 91 | 1.0 | 3.0 | 0.00 | 0.00 | 0.00 | 68 | 1027.5 |
| 20260831064309 | 62 | 90 | 1.0 | 5.0 | 0.00 | 0.00 | 0.00 | 66 | 1027.4 |
| 20260831062806 | 63 | 116 | 2.0 | 5.0 | 0.00 | 0.00 | 0.00 | 64 | 1027.4 |
| 20260831062307 | 63 | 110 | 2.0 | 5.0 | 0.00 | 0.00 | 0.00 | 64 | 1027.5 |
| 20260831061807 | 63 | 45 | 1.0 | 5.0 | 0.00 | 0.00 | 0.00 | 64 | 1027.7 |
| 20260831055807 | 63 | 133 | 2.0 | 3.0 | 0.00 | 0.00 | 0.00 | 63 | 1028.0 |
| 20260831054806 | 63 | 112 | 2.0 | 6.0 | 0.00 | 0.00 | 0.00 | 63 | 1028.0 |
| 20260831054307 | 64 | 135 | 1.0 | 5.0 | 0.00 | 0.00 | 0.00 | 62 | 1027.9 |
| 20260831053806 | 64 | 91 | 2.0 | 5.0 | 0.00 | 0.00 | 0.00 | 62 | 1028.1 |
| 20260831053307 | 64 | 90 | 2.0 | 5.0 | 0.00 | 0.00 | 0.00 | 61 | 1028.0 |
| 20260831052307 | 64 | 135 | 2.0 | 5.0 | 0.00 | 0.00 | 0.00 | 61 | 1028.1 |
| 20260831051807 | 64 | 151 | 1.0 | 3.0 | 0.00 | 0.00 | 0.00 | 59 | 1028.2 |
| 20260831051307 | 64 | 114 | 2.0 | 3.0 | 0.00 | 0.00 | 0.00 | 60 | 1028.2 |
| 20260831050808 | 64 | 3 | 1.0 | 5.0 | 0.00 | 0.00 | 0.00 | 59 | 1028.1 |
| 20260831050308 | 65 | 22 | 1.0 | 3.0 | 0.00 | 0.00 | 0.00 | 59 | 1028.1 |
| 20260831045806 | 64 | 114 | 1.0 | 3.0 | 0.00 | 0.00 | 0.00 | 60 | 1028.2 |
| 20260831044808 | 64 | 111 | 1.0 | 3.0 | 0.00 | 0.00 | 0.00 | 59 | 1028.5 |
| 20260831044306 | 65 | 114 | 3.0 | 5.0 | 0.00 | 0.00 | 0.00 | 59 | 1028.8 |
| 20260831043806 | 64 | 155 | 1.0 | 3.0 | 0.00 | 0.00 | 0.00 | 60 | 1028.8 |
| 20260831043307 | 64 | 28 | 2.0 | 6.0 | 0.00 | 0.00 | 0.00 | 60 | 1028.9 |
| 20260831042307 | 64 | 272 | 1.0 | 2.0 | 0.00 | 0.00 | 0.00 | 60 | 1029.1 |
| 20260831041806 | 64 | 225 | 1.0 | 3.0 | 0.00 | 0.00 | 0.00 | 60 | 1028.9 |
| 20260831041306 | 63 | 131 | 2.0 | 3.0 | 0.00 | 0.00 | 0.00 | 60 | 1029.0 |
| 20260831040807 | 62 | 114 | 1.0 | 3.0 | 0.00 | 0.00 | 0.00 | 63 | 1029.2 |
| 20260831040307 | 62 | 0 | 1.0 | 3.0 | 0.00 | 0.00 | 0.00 | 63 | 1029.5 |
| 20260831035807 | 63 | 321 | 1.0 | 5.0 | 0.00 | 0.00 | 0.00 | 62 | 1029.4 |
| 20260831035307 | 62 | 225 | 2.0 | 5.0 | 0.00 | 0.00 | 0.00 | 63 | 1029.5 |
| 20260831034807 | 62 | 136 | 2.0 | 5.0 | 0.00 | 0.00 | 0.00 | 63 | 1029.6 |
| 20260831034307 | 62 | 112 | 2.0 | 7.0 | 0.00 | 0.00 | 0.00 | 63 | 1029.6 |
| 20260831033806 | 61 | 110 | 2.0 | 6.0 | 0.00 | 0.00 | 0.00 | 64 | 1029.9 |
| 20260831032808 | 61 | 176 | 2.0 | 7.0 | 0.00 | 0.00 | 0.00 | 65 | 1029.9 |
| 20260831032307 | 61 | 112 | 3.0 | 6.0 | 0.00 | 0.00 | 0.00 | 65 | 1030.0 |
| 20260831031807 | 62 | 67 | 3.0 | 6.0 | 0.00 | 0.00 | 0.00 | 64 | 1030.0 |
| 20260831030806 | 64 | 133 | 3.0 | 7.0 | 0.00 | 0.00 | 0.00 | 60 | 1030.1 |
| 20260831030306 | 65 | 90 | 1.0 | 3.0 | 0.00 | 0.00 | 0.00 | 56 | 1030.2 |
| 20260831025806 | 64 | 200 | 1.0 | 3.0 | 0.00 | 0.00 | 0.00 | 59 | 1030.3 |
| 20260831025307 | 64 | 181 | 2.0 | 5.0 | 0.00 | 0.00 | 0.00 | 59 | 1030.4 |
| 20260831024306 | 63 | 201 | 2.0 | 3.0 | 0.00 | 0.00 | 0.00 | 59 | 1030.6 |
| 20260831023806 | 63 | 335 | 1.0 | 3.0 | 0.00 | 0.00 | 0.00 | 59 | 1030.6 |
| 20260831022806 | 63 | 249 | 0.0 | 6.0 | 0.00 | 0.00 | 0.00 | 60 | 1030.8 |
| 20260831022307 | 62 | 270 | 2.0 | 6.0 | 0.00 | 0.00 | 0.00 | 61 | 1031.1 |
| 20260831021307 | 62 | 94 | 1.0 | 5.0 | 0.00 | 0.00 | 0.00 | 62 | 1031.0 |
| 20260831020807 | 61 | 243 | 1.0 | 2.0 | 0.00 | 0.00 | 0.00 | 63 | 1031.3 |
| 20260831014806 | 60 | 292 | 1.0 | 3.0 | 0.00 | 0.00 | 0.00 | 65 | 1031.8 |
| 20260831013807 | 60 | 247 | 1.0 | 3.0 | 0.00 | 0.00 | 0.00 | 64 | 1031.8 |
| 20260831013308 | 61 | 268 | 1.0 | 2.0 | 0.00 | 0.00 | 0.00 | 63 | 1031.8 |
| 20260831012306 | 60 | 245 | 1.0 | 3.0 | 0.00 | 0.00 | 0.00 | 64 | 1031.8 |
| 20260831011806 | 60 | 202 | 2.0 | 5.0 | 0.00 | 0.00 | 0.00 | 65 | 1032.0 |
| 20260831011307 | 60 | 130 | 1.0 | 3.0 | 0.00 | 0.00 | 0.00 | 64 | 1032.1 |
| 20260831010806 | 59 | 225 | 2.0 | 3.0 | 0.00 | 0.00 | 0.00 | 66 | 1032.0 |
| 20260831010306 | 59 | 242 | 1.0 | 3.0 | 0.00 | 0.00 | 0.00 | 68 | 1032.1 |
| 20260831005806 | 58 | 226 | 2.0 | 3.0 | 0.00 | 0.00 | 0.00 | 68 | 1032.2 |
| 20260831004806 | 58 | 250 | 1.0 | 3.0 | 0.00 | 0.00 | 0.00 | 69 | 1032.3 |
| 20260831004306 | 58 | 228 | 1.0 | 3.0 | 0.00 | 0.00 | 0.00 | 68 | 1032.3 |
| 20260831003806 | 58 | 158 | 2.0 | 3.0 | 0.00 | 0.00 | 0.00 | 67 | 1032.3 |
| 20260831003306 | 59 | 160 | 2.0 | 5.0 | 0.00 | 0.00 | 0.00 | 67 | 1032.4 |
| 20260831002806 | 59 | 249 | 1.0 | 2.0 | 0.00 | 0.00 | 0.00 | 67 | 1032.3 |
| 20260831002307 | 59 | 269 | 1.0 | 3.0 | 0.00 | 0.00 | 0.00 | 66 | 1032.5 |
| 20260831001807 | 59 | 246 | 2.0 | 5.0 | 0.00 | 0.00 | 0.00 | 68 | 1032.5 |
| 20260831001307 | 59 | 181 | 2.0 | 3.0 | 0.00 | 0.00 | 0.00 | 67 | 1032.5 |
| 20260831000807 | 57 | 181 | 1.0 | 3.0 | 0.00 | 0.00 | 0.00 | 70 | 1032.7 |
| 20260831000307 | 56 | 272 | 1.0 | 2.0 | 0.00 | 0.00 | 0.00 | 73 | 1032.6 |
| 20260830235806 | 56 | 207 | 1.0 | 3.0 | 0.00 | 0.00 | 0.00 | 74 | 1032.6 |
| 20260830235307 | 56 | 203 | 1.0 | 3.0 | 0.00 | 0.00 | 0.00 | 73 | 1032.6 |
| 20260830234806 | 55 | 68 | 0.0 | 1.0 | 0.00 | 0.00 | 0.00 | 74 | 1032.6 |
| 20260830234306 | 55 | 115 | 0.0 | 1.0 | 0.00 | 0.00 | 0.00 | 75 | 1032.6 |
| 20260830233307 | 54 | 291 | 1.0 | 3.0 | 0.00 | 0.00 | 0.00 | 77 | 1032.5 |
| 20260830232306 | 53 | 335 | 1.0 | 2.0 | 0.00 | 0.00 | 0.00 | 79 | 1032.5 |
| 20260830231806 | 53 | 180 | 1.0 | 3.0 | 0.00 | 0.00 | 0.00 | 79 | 1032.8 |
| 20260830231307 | 53 | 247 | 1.0 | 3.0 | 0.00 | 0.00 | 0.00 | 79 | 1032.7 |
| 20260830230807 | 53 | 269 | 1.0 | 5.0 | 0.00 | 0.00 | 0.00 | 80 | 1032.6 |
| 20260830230308 | 53 | 270 | 2.0 | 5.0 | 0.00 | 0.00 | 0.00 | 79 | 1032.6 |
| 20260830225806 | 53 | 291 | 1.0 | 2.0 | 0.00 | 0.00 | 0.00 | 80 | 1032.6 |
| 20260830225308 | 53 | 225 | 1.0 | 2.0 | 0.00 | 0.00 | 0.00 | 80 | 1032.5 |
| 20260830224807 | 52 | 272 | 1.0 | 3.0 | 0.00 | 0.00 | 0.00 | 81 | 1032.5 |
| 20260830224307 | 52 | 248 | 1.0 | 2.0 | 0.00 | 0.00 | 0.00 | 82 | 1032.6 |
| 20260830223806 | 52 | 248 | 0.0 | 3.0 | 0.00 | 0.00 | 0.00 | 82 | 1032.8 |
| 20260830223307 | 51 | 225 | 1.0 | 3.0 | 0.00 | 0.00 | 0.00 | 82 | 1033.0 |
| 20260830222806 | 51 | 263 | 1.0 | 2.0 | 0.00 | 0.00 | 0.00 | 83 | 1032.7 |